This is the latest recevied weather packets stored in our database for station/object KC4BAM. If no packets are shown the sender has not sent any weather packets the latest 10 day(s).
| Time | Temp. | Humidity | Pressure | Rain* | Wind** | Luminosity | Snow |
|---|---|---|---|---|---|---|---|
| 1777223012 | 27.78° C | 46% | 1004.8 hPa | 0 mm | - | 698 W/m² | - |
| 1777222710 | 27.78° C | 45% | 1004.7 hPa | 0 mm | - | 722 W/m² | - |
| 1777222406 | 27.78° C | 47% | 1004.7 hPa | 0 mm | - | 729 W/m² | - |
| 1777222104 | 27.22° C | 46% | 1004.9 hPa | 0 mm | - | 725 W/m² | - |
| 1777221801 | 26.11° C | 50% | 1004.8 hPa | 0 mm | - | 699 W/m² | - |
| 1777221497 | 26.67° C | 49% | 1004.7 hPa | 0 mm | - | 721 W/m² | - |
| 1777221195 | 26.67° C | 49% | 1004.9 hPa | 0 mm | - | 720 W/m² | - |
| 1777220890 | 27.22° C | 49% | 1004.9 hPa | 0 mm | - | 183 W/m² | - |
| 1777220587 | 26.67° C | 50% | 1004.9 hPa | 0 mm | - | 606 W/m² | - |
| 1777220282 | 26.11° C | 50% | 1004.9 hPa | 0 mm | - | 696 W/m² | - |
| 1777219977 | 26.11° C | 51% | 1004.8 hPa | 0 mm | - | 665 W/m² | - |
| 1777219675 | 26.67° C | 52% | 1005.1 hPa | 0 mm | - | 678 W/m² | - |
| 1777219372 | 26.11° C | 53% | 1005 hPa | 0 mm | - | 633 W/m² | - |
| 1777219068 | 26.11° C | 55% | 1005 hPa | 0 mm | - | 613 W/m² | - |
| 1777218764 | 26.11° C | 54% | 1005.1 hPa | 0 mm | - | 608 W/m² | - |
| 1777218459 | 26.11° C | 55% | 1004.8 hPa | 0 mm | - | 600 W/m² | - |
| 1777218155 | 26.11° C | 55% | 1005 hPa | 0 mm | - | 591 W/m² | - |
| 1777217852 | 25° C | 57% | 1005.1 hPa | 0 mm | - | 584 W/m² | - |
| 1777217547 | 24.44° C | 57% | 1004.9 hPa | 0 mm | - | 572 W/m² | - |
| 1777217244 | 25° C | 59% | 1005 hPa | 0 mm | - | 561 W/m² | - |
| 1777216941 | 25° C | 59% | 1004.9 hPa | 0 mm | - | 551 W/m² | - |
| 1777216636 | 24.44° C | 59% | 1005 hPa | 0 mm | - | 539 W/m² | - |
| 1777216334 | 24.44° C | 60% | 1005 hPa | 0 mm | - | 524 W/m² | - |
| 1777216032 | 24.44° C | 60% | 1005.1 hPa | 0 mm | - | 513 W/m² | - |
| 1777215727 | 24.44° C | 60% | 1005 hPa | 0 mm | - | 501 W/m² | - |
* Rain latest hour (hover to see other rain measurements)
** Current wind speed in m/s (hover to see current wind gust speed)